Location: Cambroso
(45.2833°N, 12.0850°E)
Time: 09:44:32
(UTC+00:00)

CZ-2D R/B - Pass Details

Date: 21 January 2021
Orbit: 520 x 538 km, 97.4° (Epoch: 01 March)

Event Time Altitude Azimuth Distance (km) Brightness Sun altitude
Rises 16:39:35 0° 140° (SE) 2,674 6.6 -6.6°
Reaches altitude 10° 16:41:53 10° 129° (SE) 1,785 5.6 -7.0°
Maximum altitude 16:45:13 29° 69° (ENE) 1,007 4.1 -7.5°
Drops below altitude 10° 16:48:34 10° 9° (N) 1,789 5.7 -8.1°
Sets 16:50:52 0° 358° (N) 2,681 6.6 -8.5°
